NOVO254 KJFK-KDCA

Flight info

Callsign NOVO254
Flight time N/A
Altitude 14000
Route KJFK DCT CRI DCT TICKL V433 ARD T438 MAZIE V3 MXE DCT KDCA
Aircraft TBM9/M-SB3/S

Departure

Time 2026-05-06 03:17
Airport John F. Kennedy International Airport (KJFK)

Arrival

Time N/A
Airport Ronald Reagan Washington National Airport (KDCA)
Time Latitude Longitude Altitude Speed Heading
2026-05-06 03:15 40.64158 -73.77031 16 ft 0 kts 211°
2026-05-06 03:16 40.64131 -73.77052 16 ft 8 kts 210°
2026-05-06 03:16 40.64072 -73.77097 17 ft 20 kts 209°
2026-05-06 03:16 40.63755 -73.77331 26 ft 82 kts 209°
2026-05-06 03:16 40.63290 -73.77676 484 ft 83 kts 204°
2026-05-06 03:17 40.62765 -73.78164 821 ft 106 kts 236°
2026-05-06 03:17 40.62869 -73.79199 1386 ft 125 kts 276°
2026-05-06 03:17 40.63079 -73.80173 2188 ft 100 kts 259°
2026-05-06 03:17 40.63095 -73.81070 2730 ft 95 kts 248°
2026-05-06 03:18 40.62939 -73.81935 3215 ft 100 kts 250°
2026-05-06 03:18 40.62770 -73.82835 3727 ft 101 kts 249°
2026-05-06 03:18 40.62580 -73.83729 4254 ft 103 kts 250°
2026-05-06 03:18 40.62375 -73.84642 4767 ft 106 kts 250°
2026-05-06 03:19 40.62159 -73.85579 5271 ft 108 kts 250°
2026-05-06 03:19 40.61937 -73.86528 5795 ft 110 kts 250°
2026-05-06 03:19 40.61691 -73.87561 6000 ft 134 kts 250°
2026-05-06 03:19 40.61469 -73.88493 6013 ft 156 kts 251°
2026-05-06 03:20 40.61146 -73.89817 6010 ft 176 kts 249°
2026-05-06 03:20 40.60854 -73.90848 6012 ft 186 kts 248°
2026-05-06 03:20 40.60388 -73.92495 6002 ft 197 kts 249°
2026-05-06 03:21 40.59937 -73.94100 5999 ft 203 kts 248°
2026-05-06 03:21 40.59490 -73.95695 6001 ft 207 kts 248°
2026-05-06 03:21 40.58988 -73.97477 6002 ft 209 kts 248°
2026-05-06 03:22 40.58483 -73.99274 5997 ft 210 kts 249°
2026-05-06 03:22 40.57974 -74.01079 5997 ft 211 kts 248°
2026-05-06 03:22 40.57464 -74.02887 5998 ft 211 kts 248°
2026-05-06 03:22 40.56954 -74.04691 6000 ft 210 kts 248°
2026-05-06 03:23 40.56499 -74.06521 5984 ft 211 kts 251°
2026-05-06 03:23 40.56076 -74.08369 5980 ft 211 kts 251°
2026-05-06 03:23 40.55645 -74.10217 5980 ft 212 kts 251°
2026-05-06 03:23 40.55213 -74.12065 5980 ft 211 kts 251°
2026-05-06 03:24 40.54783 -74.13910 5981 ft 211 kts 251°
2026-05-06 03:24 40.54352 -74.15753 5981 ft 211 kts 251°
2026-05-06 03:24 40.53923 -74.17594 5980 ft 211 kts 251°
2026-05-06 03:24 40.53493 -74.19434 5980 ft 210 kts 251°
2026-05-06 03:25 40.53064 -74.21272 5979 ft 210 kts 251°
2026-05-06 03:25 40.52634 -74.23108 5980 ft 210 kts 251°
2026-05-06 03:25 40.52202 -74.24949 5980 ft 211 kts 251°
2026-05-06 03:25 40.51771 -74.26790 5981 ft 211 kts 251°
2026-05-06 03:26 40.51339 -74.28627 5981 ft 210 kts 251°
2026-05-06 03:26 40.50907 -74.30466 5981 ft 211 kts 251°
2026-05-06 03:26 40.50474 -74.32306 5981 ft 211 kts 250°
2026-05-06 03:26 40.50040 -74.34148 5981 ft 211 kts 251°
2026-05-06 03:27 40.49606 -74.35990 5991 ft 211 kts 250°
2026-05-06 03:27 40.49170 -74.37837 5966 ft 211 kts 250°
2026-05-06 03:27 40.48737 -74.39677 5964 ft 211 kts 250°
2026-05-06 03:27 40.48302 -74.41520 5966 ft 212 kts 250°
2026-05-06 03:28 40.47866 -74.43371 5966 ft 212 kts 250°
2026-05-06 03:28 40.47431 -74.45225 5966 ft 212 kts 250°
2026-05-06 03:28 40.46995 -74.47073 5956 ft 212 kts 250°
2026-05-06 03:28 40.46557 -74.48921 5958 ft 212 kts 250°
2026-05-06 03:29 40.46118 -74.50770 5952 ft 212 kts 250°
2026-05-06 03:29 40.45680 -74.52621 5951 ft 212 kts 250°
2026-05-06 03:29 40.45242 -74.54470 5952 ft 212 kts 250°
2026-05-06 03:29 40.44803 -74.56316 5953 ft 212 kts 250°
2026-05-06 03:30 40.44364 -74.58161 5952 ft 212 kts 250°
2026-05-06 03:30 40.43926 -74.60004 5953 ft 212 kts 250°
2026-05-06 03:30 40.43486 -74.61852 5952 ft 212 kts 250°
2026-05-06 03:30 40.43048 -74.63699 5954 ft 212 kts 250°
2026-05-06 03:31 40.42648 -74.65345 5965 ft 212 kts 248°
2026-05-06 03:31 40.42538 -74.65722 5967 ft 211 kts 246°
2026-05-06 03:31 40.41846 -74.67383 5968 ft 210 kts 236°
2026-05-06 03:31 40.41480 -74.68038 5969 ft 210 kts 232°
2026-05-06 03:32 40.40840 -74.68969 5974 ft 211 kts 228°
2026-05-06 03:32 40.39835 -74.70371 5974 ft 211 kts 229°
2026-05-06 03:32 40.38826 -74.71811 5977 ft 212 kts 229°